Dinard-Pleurtuit-Saint-Malo Airport

Jump to: basic info | weather | frequencies | runways | comments

Related pages: nearby airports | nearby navaids | notams | map

Basic information (top)

Codes: DNR LFRD
Location: lon 48.587700, lat -2.079960, elev 219 ft / 67 m msl
Status: medium_airport
Scheduled airline service: yes
Links: Wikipedia Mobile

Weather (top)

Current conditions (rec'd 2014/04/24 00:30Z):

LFRD 240030Z AUTO 22004KT 6000 NSC 07/06 Q1020

Airport forecast (rec'd 2014/04/23 00:15Z):

TAF LFRD 232300Z 2400/2424 19005KT CAVOK 
      BECMG 2400/2402 3000 BR 
      BECMG 2401/2403 0300 FG VV/// 
      BECMG 2407/2409 3000 BR BKN005 
      BECMG 2409/2411 9999 NSW BKN010 
      BECMG 2412/2414 03010KT CAVOK

Frequencies (top)

Verify before use: may be inaccurate or out of date.

ATIS: 124.575 MHz (DINARD ATIS)
TWR: 120.15 MHz (DINARD TWR)

Runways (top)

12/30: 4,708 x 148 ft (1,435 x 45 m) — paved — not lighted — threshold 30 displaced 476 ft (145 m)

17/35: 7,218 x 148 ft (2,200 x 45 m) — paved — lighted

Latest comments (top)

No comments yet for Dinard-Pleurtuit-Saint-Malo Airport

More... (top)

See also NOTAMs and nearby airports and navaids, or visit the Dinard-Pleurtuit-Saint-Malo Airport page at the main OurAirports website..